"datetime","# probes","# resolvers","can_ipv6","can_ipv6_prbs","can_tcp","can_tcp_prbs","can_tcp6","can_tcp6_prbs","does_ecs","does_ecs_prbs","does_flagday","does_flagday_prbs","does_rov4","does_rov4_prbs","does_rov6","does_rov6_prbs","does_qnamemin","doesnt_qnamemin","does_qnamemin_prbs","doesnt_qnamemin_prbs","does_nxdomain","doesnt_nxdomain","does_nxdomain_prbs","doesnt_nxdomain_prbs","has_ta_19036","hasnt_ta_19036","has_ta_19036_prbs","hasnt_ta_19036_prbs","has_ta_20326","hasnt_ta_20326","has_ta_20326_prbs","hasnt_ta_20326_prbs","can_rsamd5","cannot_rsamd5","broken_rsamd5","can_rsamd5_prbs","cannot_rsamd5_prbs","broken_rsamd5_prbs","can_dsa","cannot_dsa","broken_dsa","can_dsa_prbs","cannot_dsa_prbs","broken_dsa_prbs","can_rsasha1","cannot_rsasha1","broken_rsasha1","can_rsasha1_prbs","cannot_rsasha1_prbs","broken_rsasha1_prbs","can_dsansec3","cannot_dsansec3","broken_dsansec3","can_dsansec3_prbs","cannot_dsansec3_prbs","broken_dsansec3_prbs","can_rsansec3","cannot_rsansec3","broken_rsansec3","can_rsansec3_prbs","cannot_rsansec3_prbs","broken_rsansec3_prbs","can_rsasha256","cannot_rsasha256","broken_rsasha256","can_rsasha256_prbs","cannot_rsasha256_prbs","broken_rsasha256_prbs","can_rsasha512","cannot_rsasha512","broken_rsasha512","can_rsasha512_prbs","cannot_rsasha512_prbs","broken_rsasha512_prbs","can_eccgost","cannot_eccgost","broken_eccgost","can_eccgost_prbs","cannot_eccgost_prbs","broken_eccgost_prbs","can_ecdsa256","cannot_ecdsa256","broken_ecdsa256","can_ecdsa256_prbs","cannot_ecdsa256_prbs","broken_ecdsa256_prbs","can_ecdsa384","cannot_ecdsa384","broken_ecdsa384","can_ecdsa384_prbs","cannot_ecdsa384_prbs","broken_ecdsa384_prbs","can_ed25519","cannot_ed25519","broken_ed25519","can_ed25519_prbs","cannot_ed25519_prbs","broken_ed25519_prbs","can_ed448","cannot_ed448","broken_ed448","can_ed448_prbs","cannot_ed448_prbs","broken_ed448_prbs","can_gost","cannot_gost","broken_gost","can_gost_prbs","cannot_gost_prbs","broken_gost_prbs","can_sha384","cannot_sha384","broken_sha384","can_sha384_prbs","cannot_sha384_prbs","broken_sha384_prbs","is_internal","is_forwarding","is_external","is_internal_prbs","is_forwarding_prbs","is_external_prbs"
2017-06-20T23:59:59Z,166,306,267,145,306,166,252,139,0,18,0,0,0,0,0,0,1,305,3,166,0,306,0,166,0,0,0,0,0,0,0,0,8,298,0,10,162,17,306,0,0,166,28,3,306,0,0,166,18,2,306,0,0,166,29,3,306,0,0,166,19,2,306,0,0,166,19,2,306,0,0,166,19,2,306,0,0,166,32,3,306,0,0,166,20,2,306,0,0,166,20,2,0,306,0,0,166,3,0,306,0,0,166,3,306,0,0,166,22,3,304,0,0,166,20,2,241,23,42,134,25,52
2017-06-21T23:59:59Z,166,304,265,145,304,166,250,140,0,20,0,0,0,0,0,0,1,303,3,166,0,304,0,166,0,0,0,0,0,0,0,0,8,296,0,10,162,18,304,0,0,166,29,3,304,0,0,166,18,2,303,1,0,166,30,3,303,1,0,166,19,2,303,1,0,166,19,2,303,1,0,166,19,2,303,1,0,166,34,3,303,1,0,166,20,2,303,1,0,166,20,2,0,304,0,0,166,3,0,304,0,0,166,3,304,0,0,166,22,3,302,1,0,165,20,2,239,23,42,134,25,53
2017-06-22T23:59:59Z,167,308,267,145,308,167,252,139,1,20,0,0,0,0,0,0,2,306,4,166,0,308,0,167,0,0,0,0,0,0,0,0,7,301,0,9,163,17,308,0,0,167,30,2,308,0,0,167,19,1,307,1,0,166,32,2,308,0,0,167,20,1,308,0,0,167,20,1,308,0,0,167,20,1,307,1,0,166,36,2,308,0,0,167,21,1,308,0,0,167,21,1,0,308,0,0,167,2,0,308,0,0,167,2,308,0,0,167,23,3,307,0,0,166,20,2,240,24,44,134,27,54
2017-06-23T23:59:59Z,166,307,266,144,307,166,251,138,1,18,0,0,0,0,0,0,2,305,4,165,0,307,1,166,0,0,0,0,0,0,0,0,7,300,0,9,162,16,306,1,0,166,29,3,306,1,0,166,19,2,305,2,0,165,30,3,306,1,0,166,19,2,306,1,0,166,19,2,306,1,0,166,19,2,305,2,0,165,34,3,307,0,0,166,19,2,307,0,0,166,19,2,0,307,0,0,166,3,0,307,0,0,166,3,307,0,0,166,21,4,305,1,0,165,19,3,239,24,44,133,28,52
2017-06-24T23:59:59Z,160,298,258,139,298,160,244,134,0,18,0,0,0,0,0,0,2,296,4,159,0,298,0,160,0,0,0,0,0,0,0,0,7,291,0,9,157,15,298,0,0,160,28,2,298,0,0,160,18,1,298,0,0,160,28,2,298,0,0,160,18,1,298,0,0,160,18,1,298,0,0,160,18,1,298,0,0,160,32,2,298,0,0,160,18,1,298,0,0,160,18,1,0,298,0,0,160,2,0,298,0,0,160,2,298,0,0,160,21,3,297,0,0,159,18,2,232,22,44,129,25,51
2017-06-25T23:59:59Z,161,302,262,140,302,161,247,134,1,19,0,0,0,0,0,0,2,300,4,160,0,302,0,161,0,0,0,0,0,0,0,0,7,295,0,9,158,14,302,0,0,161,27,2,302,0,0,161,18,1,301,1,0,160,29,2,302,0,0,161,19,1,302,0,0,161,19,1,302,0,0,161,19,1,301,1,0,160,33,2,302,0,0,161,20,1,302,0,0,161,20,1,0,302,0,0,161,2,0,302,0,0,161,2,302,0,0,161,22,3,301,0,0,160,18,2,236,22,44,130,26,50
2017-06-26T23:59:59Z,164,309,270,144,309,164,254,138,0,18,0,0,0,0,0,0,2,307,4,163,0,309,0,164,0,0,0,0,0,0,0,0,7,302,0,10,161,15,309,0,0,164,28,2,309,0,0,164,18,1,309,0,0,164,28,2,309,0,0,164,18,1,309,0,0,164,18,1,309,0,0,164,18,1,309,0,0,164,33,2,308,1,0,164,20,1,308,1,0,164,20,1,0,309,0,0,164,2,0,309,0,0,164,2,309,0,0,164,22,3,307,1,0,163,19,2,245,22,42,134,26,50
2017-06-27T23:59:59Z,163,307,266,142,307,163,252,137,0,15,0,0,0,0,0,0,2,305,4,162,0,307,0,163,0,0,0,0,0,0,0,0,7,299,1,10,159,14,306,1,0,162,26,2,307,0,0,163,16,1,307,0,0,163,26,2,307,0,0,163,17,1,307,0,0,163,17,1,307,0,0,163,17,1,307,0,0,163,31,2,307,0,0,163,18,1,307,0,0,163,18,1,0,307,0,0,163,2,0,307,0,0,163,2,307,0,0,163,21,3,306,0,0,162,17,2,241,22,44,132,25,49
2017-06-28T23:59:59Z,163,307,266,142,307,163,252,136,1,18,0,0,0,0,0,0,2,305,4,162,0,307,0,163,0,0,0,0,0,0,0,0,7,300,0,9,160,15,307,0,0,163,27,3,307,0,0,163,17,2,306,1,0,162,29,3,307,0,0,163,18,2,307,0,0,163,18,2,307,0,0,163,18,2,306,1,0,162,33,3,307,0,0,163,19,2,307,0,0,163,19,2,0,307,0,0,163,3,0,307,0,0,163,3,307,0,0,163,21,4,306,0,0,162,17,3,241,22,44,132,26,50
2017-06-29T23:59:57Z,161,305,264,140,305,161,250,135,0,15,0,0,0,0,0,0,2,303,4,160,0,305,0,161,0,0,0,0,0,0,0,0,7,298,0,10,158,14,305,0,0,161,26,2,305,0,0,161,16,1,305,0,0,161,25,2,305,0,0,161,15,1,305,0,0,161,15,1,305,0,0,161,15,1,305,0,0,161,30,2,305,0,0,161,17,1,305,0,0,161,17,1,0,305,0,0,161,2,0,305,0,0,161,2,305,0,0,161,20,3,304,0,0,160,16,2,239,22,44,130,25,49
2017-06-30T23:59:59Z,162,307,266,141,307,162,251,135,1,16,0,0,0,0,0,0,2,305,4,161,0,307,0,162,0,0,0,0,0,0,0,0,7,300,0,10,159,14,307,0,0,162,26,2,307,0,0,162,16,1,306,1,0,161,27,2,307,0,0,162,16,1,307,0,0,162,16,1,307,0,0,162,16,2,306,1,0,161,32,3,307,0,0,162,16,1,307,0,0,162,16,1,0,307,0,0,162,2,0,307,0,0,162,2,307,0,0,162,20,3,306,0,0,161,15,2,239,22,46,131,25,49
2017-07-01T23:59:59Z,159,301,260,138,301,159,247,134,0,14,0,0,0,0,0,0,2,299,4,158,0,301,0,159,0,0,0,0,0,0,0,0,7,294,0,10,156,13,301,0,0,159,24,2,301,0,0,159,15,1,301,0,0,159,25,2,301,0,0,159,16,1,301,0,0,159,16,1,301,0,0,159,16,1,301,0,0,159,30,3,301,0,0,159,16,1,301,0,0,159,16,1,0,301,0,0,159,2,0,301,0,0,159,2,301,0,0,159,20,3,300,0,0,158,16,2,233,22,46,128,25,48
2017-07-02T23:59:59Z,160,305,264,139,305,160,249,133,0,16,0,0,0,0,0,0,2,303,3,159,0,305,0,160,0,0,0,0,0,0,0,0,7,298,0,10,157,13,305,0,0,160,28,1,305,0,0,160,18,0,305,0,0,160,28,1,305,0,0,160,18,0,305,0,0,160,18,0,305,0,0,160,18,0,305,0,0,160,32,1,305,0,0,160,19,0,305,0,0,160,19,0,0,305,0,0,160,1,0,305,0,0,160,1,305,0,0,160,21,2,304,0,0,159,18,1,238,21,46,130,25,49
2017-07-03T23:59:59Z,162,310,268,141,310,162,254,135,0,15,0,0,0,0,0,0,2,308,4,161,0,310,0,162,0,0,0,0,0,0,0,0,7,302,1,10,158,14,309,1,0,161,27,1,310,0,0,162,16,1,310,0,0,162,26,1,310,0,0,162,16,1,310,0,0,162,16,1,310,0,0,162,16,1,310,0,0,162,30,1,310,0,0,162,17,1,310,0,0,162,17,1,0,310,0,0,162,1,0,310,0,0,162,1,310,0,0,162,20,2,309,0,0,161,17,2,243,21,46,132,24,49
2017-07-04T23:59:59Z,163,315,271,142,315,163,256,136,0,15,0,0,0,0,0,0,2,313,3,162,0,315,0,163,0,0,0,0,0,0,0,0,7,308,0,10,160,13,315,0,0,163,26,1,315,0,0,163,17,0,315,0,0,163,27,1,314,0,1,162,18,1,315,0,0,163,18,0,315,0,0,163,18,0,315,0,0,163,31,1,314,0,1,162,19,1,314,0,1,162,19,1,0,314,1,0,162,2,0,315,0,0,163,2,315,0,0,163,21,2,314,0,0,162,18,1,245,21,49,132,25,50
2017-07-05T23:59:58Z,164,316,272,143,316,164,256,136,0,16,0,0,0,0,0,0,2,314,3,163,0,316,0,164,0,0,0,0,0,0,0,0,7,309,0,10,161,14,316,0,0,164,28,1,316,0,0,164,17,0,316,0,0,164,28,1,316,0,0,164,17,0,316,0,0,164,17,0,316,0,0,164,17,0,316,0,0,164,32,1,316,0,0,164,17,0,316,0,0,164,17,0,0,316,0,0,164,1,0,316,0,0,164,1,316,0,0,164,20,2,315,0,0,163,17,1,246,21,49,133,24,51
2017-07-06T23:59:59Z,163,314,270,142,314,163,255,136,0,15,0,0,0,0,0,0,2,312,3,162,0,314,0,163,0,0,0,0,0,0,0,0,7,307,0,10,160,13,314,0,0,163,26,1,314,0,0,163,16,0,314,0,0,163,27,1,314,0,0,163,17,0,314,0,0,163,17,0,314,0,0,163,17,0,314,0,0,163,31,1,314,0,0,163,17,0,314,0,0,163,17,0,0,314,0,0,163,1,0,314,0,0,163,1,314,0,0,163,20,2,313,0,0,162,17,1,244,21,49,132,24,50
2017-07-07T23:59:59Z,163,313,269,142,313,163,254,136,0,16,0,0,0,0,0,0,2,311,3,162,0,313,0,163,0,0,0,0,0,0,0,0,7,306,0,10,160,14,313,0,0,163,27,1,313,0,0,163,16,0,313,0,0,163,27,1,313,0,0,163,16,0,313,0,0,163,16,0,313,0,0,163,16,0,313,0,0,163,31,1,313,0,0,163,17,0,313,0,0,163,17,0,0,313,0,0,163,1,0,313,0,0,163,1,313,0,0,163,20,2,312,0,0,162,17,1,243,21,49,132,24,51
2017-07-08T23:59:59Z,162,313,269,141,313,162,254,135,0,15,0,0,0,0,0,0,2,311,3,161,0,313,0,162,0,0,0,0,0,0,0,0,7,306,0,10,159,13,312,1,0,162,27,1,312,1,0,162,17,0,313,0,0,162,26,1,313,0,0,162,16,0,313,0,0,162,16,0,313,0,0,162,16,0,313,0,0,162,30,1,312,1,0,162,18,0,312,1,0,162,18,0,0,313,0,0,162,1,0,313,0,0,162,1,313,0,0,162,19,2,312,0,0,161,16,1,245,21,47,132,24,49
2017-07-09T23:59:59Z,166,324,279,145,324,166,264,139,0,17,0,0,0,0,0,0,2,322,3,165,0,324,0,166,0,0,0,0,0,0,0,0,7,317,0,10,163,14,324,0,0,166,30,0,324,0,0,166,18,0,324,0,0,166,30,0,324,0,0,166,18,0,324,0,0,166,18,0,324,0,0,166,18,0,324,0,0,166,34,0,324,0,0,166,18,0,324,0,0,166,18,0,0,324,0,0,166,0,0,324,0,0,166,0,324,0,0,166,21,1,323,0,0,165,18,1,255,22,47,135,25,51
2017-07-10T23:59:59Z,166,323,280,146,323,166,265,140,0,15,0,0,0,0,0,0,2,321,3,165,0,323,1,166,0,0,0,0,0,0,0,0,7,316,0,10,163,12,323,0,0,166,28,0,323,0,0,166,18,0,323,0,0,166,29,0,323,0,0,166,19,0,323,0,0,166,19,0,323,0,0,166,19,0,323,0,0,166,33,0,323,0,0,166,19,0,323,0,0,166,19,0,0,323,0,0,166,0,0,323,0,0,166,0,323,0,0,166,21,2,322,0,0,165,18,2,254,22,47,135,27,49
2017-07-11T23:59:59Z,167,324,281,147,324,167,266,141,0,17,0,0,0,0,0,0,2,322,3,166,0,324,0,167,0,0,0,0,0,0,0,0,7,317,0,9,164,13,324,0,0,167,29,0,324,0,0,167,18,0,324,0,0,167,28,0,324,0,0,167,17,0,324,0,0,167,17,0,324,0,0,167,17,0,324,0,0,167,31,0,324,0,0,167,18,0,324,0,0,167,18,0,0,324,0,0,167,0,0,324,0,0,167,0,324,0,0,167,20,1,323,0,0,166,19,1,255,22,47,136,26,49
2017-07-12T23:59:59Z,165,318,275,145,318,165,260,139,0,17,0,0,0,0,0,0,2,316,3,164,0,318,0,165,0,0,0,0,0,0,0,0,7,311,0,9,162,14,318,0,0,165,30,0,318,0,0,165,18,0,318,0,0,165,30,0,318,0,0,165,18,0,318,0,0,165,18,0,318,0,0,165,18,0,318,0,0,165,33,0,318,0,0,165,18,0,318,0,0,165,18,0,0,318,0,0,165,0,0,318,0,0,165,0,318,0,0,165,20,1,317,0,0,164,18,1,249,22,47,134,25,50
2017-07-13T23:59:59Z,164,322,279,144,322,164,264,138,0,16,0,0,0,0,0,0,2,320,3,163,0,322,0,164,0,0,0,0,0,0,0,0,6,316,0,8,162,13,322,0,0,164,29,0,322,0,0,164,18,0,322,0,0,164,29,0,322,0,0,164,18,0,322,0,0,164,18,0,322,0,0,164,18,0,322,0,0,164,32,0,322,0,0,164,19,0,322,0,0,164,19,0,0,322,0,0,164,0,0,322,0,0,164,0,322,0,0,164,20,1,321,0,0,163,18,1,253,22,47,133,26,49
2017-07-14T23:59:59Z,167,330,287,147,330,167,272,141,0,17,0,0,0,0,0,0,2,328,3,166,0,330,0,167,0,0,0,0,0,0,0,0,6,324,0,8,165,14,330,0,0,167,29,0,330,0,0,167,17,0,330,0,0,167,29,0,330,0,0,167,17,0,330,0,0,167,17,0,330,0,0,167,17,0,330,0,0,167,32,0,330,0,0,167,18,0,330,0,0,167,17,0,0,330,0,0,167,0,0,330,0,0,167,0,330,0,0,167,19,1,329,0,0,166,17,1,261,22,47,136,26,49
2017-07-15T23:59:59Z,167,328,285,146,328,167,269,140,0,17,0,0,0,0,0,0,2,326,3,166,0,328,0,167,0,0,0,0,0,0,0,0,6,322,0,8,165,14,327,1,0,167,29,0,327,1,0,167,17,0,327,1,0,167,29,0,327,1,0,167,17,0,327,1,0,167,17,0,327,1,0,167,17,0,327,1,0,167,32,0,328,0,0,167,17,0,328,0,0,167,17,0,0,328,0,0,167,0,0,328,0,0,167,0,328,0,0,167,18,1,327,0,0,166,16,1,259,22,47,136,25,48
2017-07-16T23:59:59Z,167,329,286,146,329,167,271,140,0,16,0,0,0,0,0,0,2,327,3,166,0,329,0,167,0,0,0,0,0,0,0,0,6,323,0,8,165,13,329,0,0,167,27,0,329,0,0,167,16,0,329,0,0,167,28,0,329,0,0,167,17,0,329,0,0,167,17,0,329,0,0,167,17,0,329,0,0,167,31,0,329,0,0,167,17,0,329,0,0,167,17,0,0,329,0,0,167,0,0,329,0,0,167,0,329,0,0,167,19,1,328,0,0,166,17,1,260,22,47,136,25,47
2017-07-17T23:59:59Z,166,327,293,149,327,166,278,143,0,15,0,0,0,0,0,0,2,325,3,165,0,327,0,166,0,0,0,0,0,0,0,0,6,321,0,8,164,12,327,0,0,166,25,0,327,0,0,166,15,0,327,0,0,166,26,0,327,0,0,166,16,0,327,0,0,166,16,0,327,0,0,166,16,0,327,0,0,166,30,0,327,0,0,166,17,0,327,0,0,166,17,0,0,327,0,0,166,0,0,327,0,0,166,0,327,0,0,166,19,1,326,0,0,165,16,1,258,22,47,136,25,45
2017-07-18T23:59:59Z,167,327,295,152,327,167,271,142,0,18,0,0,0,0,0,0,2,325,3,166,0,327,0,167,0,0,0,0,0,0,0,0,7,320,0,9,164,15,327,0,0,167,30,0,327,0,0,167,17,0,327,0,0,167,30,1,327,0,0,167,17,0,327,0,0,167,17,0,327,0,0,167,17,0,327,0,0,167,33,0,327,0,0,167,17,0,327,0,0,167,17,0,0,327,0,0,167,0,0,327,0,0,167,0,327,0,0,167,19,2,326,0,0,166,16,1,260,22,45,137,25,48
2017-07-19T23:59:59Z,167,328,314,164,328,167,236,141,0,18,0,0,0,0,0,0,2,326,3,166,0,327,1,167,0,0,0,0,0,0,0,0,7,321,0,9,164,16,328,0,0,167,28,1,328,0,0,167,15,1,328,0,0,167,29,1,328,0,0,167,16,1,328,0,0,167,16,1,328,0,0,167,16,2,328,0,0,167,32,1,328,0,0,167,17,1,327,0,1,167,17,2,0,327,1,0,167,2,0,327,1,0,167,2,328,0,0,167,18,2,327,0,0,166,16,2,261,22,45,137,25,47
2017-07-20T23:59:59Z,167,329,315,164,329,167,193,124,0,17,0,0,0,0,0,0,2,327,3,166,0,329,0,167,0,0,0,0,0,0,0,0,7,322,0,9,164,14,329,0,0,167,28,0,329,0,0,167,16,0,328,1,0,167,29,0,328,1,0,167,17,0,328,1,0,167,17,0,328,1,0,167,17,0,328,1,0,167,32,0,328,1,0,167,18,0,328,1,0,167,18,0,0,329,0,0,167,0,0,329,0,0,167,0,329,0,0,167,18,1,327,1,0,166,17,1,261,23,45,136,28,46
2017-07-21T23:59:59Z,168,328,314,165,328,168,194,125,0,17,0,0,0,0,0,0,2,326,4,167,0,328,0,168,0,0,0,0,0,0,0,0,7,321,0,9,165,14,328,0,0,168,28,0,328,0,0,168,16,0,328,0,0,168,27,0,328,0,0,168,15,0,328,0,0,168,15,0,328,0,0,168,15,0,328,0,0,168,30,0,328,0,0,168,17,0,328,0,0,168,17,0,0,328,0,0,168,0,0,328,0,0,168,0,328,0,0,168,18,1,327,0,0,167,16,1,261,22,45,138,24,46
2017-07-22T23:59:59Z,165,322,309,162,322,165,192,121,0,15,0,0,0,0,0,0,2,320,3,164,0,322,0,165,0,0,0,0,0,0,0,0,7,315,0,9,162,12,322,0,0,165,25,0,322,0,0,165,15,0,322,0,0,165,25,0,322,0,0,165,15,0,322,0,0,165,15,0,322,0,0,165,15,0,322,0,0,165,28,0,322,0,0,165,17,0,322,0,0,165,17,0,0,322,0,0,165,0,0,322,0,0,165,0,322,0,0,165,18,1,321,0,0,164,16,1,255,22,45,135,24,44
2017-07-23T23:59:59Z,166,327,313,163,327,166,194,123,0,17,0,0,0,0,0,0,2,325,3,165,0,327,0,166,0,0,0,0,0,0,0,0,7,320,0,9,163,13,327,0,0,166,26,0,327,0,0,166,15,0,327,0,0,166,27,0,327,0,0,166,16,0,327,0,0,166,16,0,327,0,0,166,16,0,327,0,0,166,30,0,327,0,0,166,17,0,327,0,0,166,17,0,0,327,0,0,166,0,0,327,0,0,166,0,327,0,0,166,18,1,326,0,0,165,16,1,258,21,48,136,24,46
2017-07-24T23:59:59Z,169,332,315,166,332,169,192,127,0,17,0,0,0,0,0,0,2,330,3,168,0,332,0,169,0,0,0,0,0,0,0,0,7,325,0,9,166,14,332,0,0,169,27,0,332,0,0,169,15,0,332,0,0,169,28,0,332,0,0,169,16,0,332,0,0,169,16,0,332,0,0,169,16,0,332,0,0,169,31,0,332,0,0,169,16,0,332,0,0,169,16,0,0,332,0,0,169,0,0,332,0,0,169,0,332,0,0,169,22,2,331,0,0,168,15,1,263,21,48,139,24,47
2017-07-25T23:59:59Z,170,333,316,166,333,170,197,126,0,17,0,0,0,0,0,0,2,331,3,169,0,333,0,170,0,0,0,0,0,0,0,0,7,326,0,9,167,14,333,0,0,170,28,0,333,0,0,170,16,0,333,0,0,170,28,0,333,0,0,170,16,0,333,0,0,170,16,0,333,0,0,170,16,0,333,0,0,170,31,0,333,0,0,170,17,0,333,0,0,170,17,0,0,333,0,0,170,0,0,333,0,0,170,0,333,0,0,170,18,1,332,0,0,169,15,1,264,21,48,140,24,47
2017-07-26T23:59:59Z,171,336,319,168,336,171,196,128,0,19,0,0,0,0,0,0,2,334,3,170,0,336,0,171,0,0,0,0,0,0,0,0,7,329,0,9,168,16,336,0,0,171,29,0,336,0,0,171,15,0,336,0,0,171,30,0,336,0,0,171,16,0,336,0,0,171,16,0,336,0,0,171,16,0,336,0,0,171,33,0,336,0,0,171,17,0,336,0,0,171,17,0,0,336,0,0,171,0,0,336,0,0,171,0,336,0,0,171,18,1,335,0,0,170,16,1,267,21,48,141,24,49
2017-07-27T23:59:59Z,168,331,314,165,331,168,201,131,0,18,0,0,0,0,0,0,2,329,3,167,0,331,0,168,0,0,0,0,0,0,0,0,7,324,0,9,165,15,331,0,0,168,28,0,331,0,0,168,15,0,331,0,0,168,29,0,331,0,0,168,16,0,331,0,0,168,16,0,331,0,0,168,16,0,331,0,0,168,32,0,331,0,0,168,17,0,331,0,0,168,17,0,0,331,0,0,168,0,0,331,0,0,168,0,331,0,0,168,18,1,330,0,0,167,16,1,260,23,48,136,26,48
2017-07-28T23:59:59Z,165,323,306,161,323,165,190,122,0,17,0,0,0,0,0,0,2,321,3,164,0,323,0,165,0,0,0,0,0,0,0,0,7,316,0,9,162,14,323,0,0,165,27,0,323,0,0,165,14,0,323,0,0,165,27,0,323,0,0,165,14,0,323,0,0,165,14,0,323,0,0,165,14,0,323,0,0,165,30,0,323,0,0,165,16,0,323,0,0,165,16,0,0,323,0,0,165,0,0,323,0,0,165,0,323,0,0,165,17,1,322,0,0,164,14,1,253,22,48,134,25,47
2017-07-29T23:59:59Z,164,322,306,161,322,164,189,120,0,16,0,0,0,0,0,0,2,320,3,163,0,322,0,164,0,0,0,0,0,0,0,0,7,315,0,9,161,13,322,0,0,164,26,0,322,0,0,164,15,0,322,0,0,164,27,0,322,0,0,164,16,0,322,0,0,164,16,0,322,0,0,164,16,0,322,0,0,164,30,0,322,0,0,164,16,0,322,0,0,164,16,0,0,322,0,0,164,0,0,322,0,0,164,0,322,0,0,164,18,1,321,0,0,163,16,1,254,21,47,134,25,45
2017-07-30T23:59:59Z,162,315,296,158,315,162,181,116,0,17,0,0,0,0,0,0,1,314,2,161,0,315,0,162,0,0,0,0,0,0,0,0,7,308,0,10,159,13,315,0,0,162,26,0,315,0,0,162,14,0,315,0,0,162,26,0,315,0,0,162,14,0,315,0,0,162,14,0,315,0,0,162,14,0,315,0,0,162,29,0,315,0,0,162,16,0,315,0,0,162,16,0,0,315,0,0,162,0,0,315,0,0,162,0,315,0,0,162,17,1,314,0,0,161,15,1,250,20,45,134,25,44
2017-07-31T23:59:59Z,160,316,296,155,316,160,182,120,0,18,0,0,0,0,0,0,1,315,2,159,0,316,0,160,0,0,0,0,0,0,0,0,7,309,0,9,157,14,316,0,0,160,26,0,316,0,0,160,13,0,316,0,0,160,27,0,316,0,0,160,14,0,316,0,0,160,14,0,316,0,0,160,14,0,316,0,0,160,30,0,316,0,0,160,14,0,316,0,0,160,15,0,0,316,0,0,160,0,0,316,0,0,160,0,316,0,0,160,16,1,315,0,0,159,14,1,253,20,43,133,23,44
2017-08-01T23:59:59Z,161,316,296,157,316,161,187,122,0,18,0,0,0,0,0,0,1,315,2,160,0,316,1,161,0,0,0,0,0,0,0,0,7,309,0,9,158,15,316,0,0,161,26,1,316,0,0,161,13,1,316,0,0,161,27,1,316,0,0,161,14,1,316,0,0,161,14,1,316,0,0,161,14,1,316,0,0,161,30,1,316,0,0,161,15,1,316,0,0,161,15,1,0,316,0,0,161,1,0,316,0,0,161,1,316,0,0,161,16,2,315,0,0,160,13,2,253,20,43,133,24,44
2017-08-02T23:59:59Z,159,316,296,155,316,159,187,118,0,18,0,0,0,0,0,0,1,315,2,158,0,316,0,159,0,0,0,0,0,0,0,0,7,309,0,10,156,14,316,0,0,159,27,0,316,0,0,159,14,0,316,0,0,159,27,0,316,0,0,159,14,0,316,0,0,159,14,0,316,0,0,159,14,0,316,0,0,159,30,0,316,0,0,159,15,0,316,0,0,159,15,0,0,316,0,0,159,0,0,316,0,0,159,0,316,0,0,159,17,1,315,0,0,158,15,1,254,19,43,132,24,44
2017-08-03T23:59:59Z,157,308,288,152,308,157,184,119,0,18,0,0,0,0,0,0,1,307,2,156,0,308,0,157,0,0,0,0,0,0,0,0,7,301,0,9,154,14,308,0,0,157,27,0,308,0,0,157,14,0,308,0,0,157,28,0,308,0,0,157,15,0,308,0,0,157,15,0,308,0,0,157,15,0,308,0,0,157,31,0,308,0,0,157,15,0,308,0,0,157,15,0,0,308,0,0,157,0,0,308,0,0,157,0,308,0,0,157,17,1,307,0,0,156,15,1,246,19,43,130,23,44
2017-08-04T23:59:59Z,158,309,289,154,309,158,182,119,0,19,0,0,0,0,0,0,1,308,2,157,0,309,0,158,0,0,0,0,0,0,0,0,7,302,0,9,155,15,309,0,0,158,28,0,309,0,0,158,14,0,309,0,0,158,29,0,309,0,0,158,15,0,309,0,0,158,15,0,309,0,0,158,15,0,309,0,0,158,32,0,309,0,0,158,16,0,309,0,0,158,16,0,0,309,0,0,158,0,0,309,0,0,158,0,309,0,0,158,17,1,308,0,0,157,15,1,246,20,43,130,24,45
2017-08-05T23:59:59Z,160,312,292,156,312,160,186,121,0,18,0,0,0,0,0,0,1,311,2,159,0,312,0,160,0,0,0,0,0,0,0,0,7,305,0,9,157,14,312,0,0,160,29,0,312,0,0,160,16,0,312,0,0,160,30,0,312,0,0,160,17,0,312,0,0,160,17,0,312,0,0,160,17,0,312,0,0,160,33,0,312,0,0,160,18,0,312,0,0,160,18,0,0,312,0,0,160,0,0,312,0,0,160,0,312,0,0,160,19,1,311,0,0,159,17,1,247,20,45,131,25,46
2017-08-06T23:59:59Z,159,312,292,155,312,159,176,116,0,18,0,0,0,0,0,0,1,311,2,158,0,312,0,159,0,0,0,0,0,0,0,0,7,305,0,9,156,14,312,0,0,159,28,0,312,0,0,159,15,0,312,0,0,159,28,0,312,0,0,159,15,0,312,0,0,159,15,0,312,0,0,159,15,0,312,0,0,159,31,0,312,0,0,159,17,0,312,0,0,159,17,0,0,312,0,0,159,0,0,312,0,0,159,0,312,0,0,159,18,1,311,0,0,158,15,1,250,19,43,132,22,45
2017-08-07T23:59:59Z,163,315,294,157,315,163,181,120,0,20,0,0,0,0,0,0,1,314,2,162,0,315,0,163,0,0,0,0,0,0,0,0,7,308,0,9,160,16,315,0,0,163,31,0,315,0,0,163,17,0,315,0,0,163,32,0,315,0,0,163,18,0,315,0,0,163,18,0,315,0,0,163,18,0,315,0,0,163,35,0,315,0,0,163,19,0,315,0,0,163,19,0,0,315,0,0,163,0,0,315,0,0,163,0,315,0,0,163,20,1,314,0,0,162,17,1,253,19,43,136,23,47
2017-08-08T23:59:59Z,162,312,293,157,312,162,182,119,0,20,0,0,0,0,0,0,1,311,2,161,0,312,0,162,0,0,0,0,0,0,0,0,7,305,0,9,159,16,312,0,0,162,30,0,312,0,0,162,16,0,312,0,0,162,31,0,312,0,0,162,17,0,312,0,0,162,17,0,312,0,0,162,17,0,312,0,0,162,34,0,312,0,0,162,17,0,312,0,0,162,17,0,0,312,0,0,162,0,0,312,0,0,162,0,312,0,0,162,19,1,311,0,0,161,16,1,250,19,43,135,23,46
2017-08-09T23:59:59Z,164,314,295,158,314,164,181,122,0,20,0,0,0,0,0,0,2,312,3,163,0,314,0,164,0,0,0,0,0,0,0,0,7,307,0,9,161,16,314,0,0,164,31,0,314,0,0,164,17,0,314,0,0,164,32,0,314,0,0,164,17,0,314,0,0,164,18,0,314,0,0,164,18,0,314,0,0,164,35,0,314,0,0,164,19,0,314,0,0,164,19,0,0,314,0,0,164,0,0,314,0,0,164,0,314,0,0,164,20,1,313,0,0,163,18,1,251,20,43,136,24,47
2017-08-10T23:59:59Z,163,316,297,158,316,163,178,119,0,20,0,0,0,0,0,0,1,315,2,162,0,316,0,163,0,0,0,0,0,0,0,0,7,309,0,9,160,16,316,0,0,163,31,0,316,0,0,163,17,0,316,0,0,163,32,0,316,0,0,163,18,0,316,0,0,163,18,0,316,0,0,163,18,0,316,0,0,163,35,0,316,0,0,163,18,0,316,0,0,163,18,0,0,316,0,0,163,0,0,316,0,0,163,0,316,0,0,163,20,1,315,0,0,162,18,1,254,19,43,136,23,47
2017-08-11T23:59:59Z,160,308,290,155,308,160,180,122,0,20,0,0,0,0,0,0,1,307,2,159,0,308,0,160,0,0,0,0,0,0,0,0,7,300,1,9,157,17,307,0,1,159,32,1,307,0,1,159,18,1,307,0,1,159,32,1,307,0,1,159,18,1,307,0,1,159,18,1,307,0,1,159,18,1,307,0,1,159,35,1,307,0,1,159,20,1,307,0,1,159,20,1,0,307,1,0,160,1,0,307,1,0,160,1,308,0,0,160,21,1,307,0,0,159,18,1,248,19,41,134,24,46
2017-08-12T23:59:59Z,161,306,286,153,306,161,176,118,0,21,0,0,0,0,0,0,1,305,2,160,0,306,0,161,0,0,0,0,0,0,0,0,7,299,0,9,158,17,306,0,0,161,32,0,306,0,0,161,17,0,306,0,0,161,32,0,306,0,0,161,17,0,306,0,0,161,17,0,306,0,0,161,17,0,306,0,0,161,35,0,306,0,0,161,19,0,306,0,0,161,19,0,0,306,0,0,161,0,0,306,0,0,161,0,306,0,0,161,20,1,305,0,0,160,18,1,246,19,41,134,24,47
2017-08-13T23:59:59Z,162,309,289,154,309,162,179,118,0,22,0,0,0,0,0,0,1,308,2,161,0,309,0,162,0,0,0,0,0,0,0,0,7,302,0,9,159,18,309,0,0,162,34,0,309,0,0,162,18,0,309,0,0,162,35,0,309,0,0,162,19,0,309,0,0,162,19,0,309,0,0,162,19,0,309,0,0,162,38,0,309,0,0,162,20,0,309,0,0,162,20,0,0,309,0,0,162,0,0,309,0,0,162,0,309,0,0,162,21,1,308,0,0,161,19,1,249,19,41,135,24,48
2017-08-14T23:59:59Z,164,314,291,155,314,164,178,118,0,20,0,0,0,0,0,0,1,313,2,163,0,314,0,164,0,0,0,0,0,0,0,0,7,307,0,9,161,17,314,0,0,164,32,0,314,0,0,164,16,0,314,0,0,164,33,0,314,0,0,164,17,0,314,0,0,164,17,0,314,0,0,164,17,0,314,0,0,164,36,0,314,0,0,164,17,0,314,0,0,164,17,0,0,314,0,0,164,0,0,314,0,0,164,0,314,0,0,164,20,1,313,0,0,163,17,1,254,19,41,137,25,45
2017-08-15T23:59:59Z,163,310,287,153,310,163,180,118,0,20,0,0,0,0,0,0,1,309,2,162,0,310,0,163,0,0,0,0,0,0,0,0,7,303,0,9,160,16,310,0,0,163,30,0,310,0,0,163,15,0,310,0,0,163,31,0,310,0,0,163,16,0,310,0,0,163,16,0,310,0,0,163,16,0,310,0,0,163,34,0,310,0,0,163,17,0,310,0,0,163,17,0,0,310,0,0,163,0,0,310,0,0,163,0,310,0,0,163,19,1,309,0,0,162,16,1,254,18,38,137,24,44
2017-08-16T23:59:59Z,164,309,285,153,309,164,180,118,0,20,0,0,0,0,0,0,2,307,3,163,0,309,1,164,0,0,0,0,0,0,0,0,7,302,0,9,161,19,309,0,0,164,30,2,309,0,0,164,15,2,309,0,0,164,30,2,309,0,0,164,15,2,309,0,0,164,15,2,309,0,0,164,15,2,309,0,0,164,33,2,309,0,0,164,16,2,309,0,0,164,16,2,0,309,0,0,164,2,0,309,0,0,164,2,309,0,0,164,17,3,308,0,0,163,15,3,254,18,37,139,23,44
2017-08-17T23:59:59Z,165,315,289,154,315,165,186,121,0,21,0,0,0,0,0,0,1,314,2,164,0,315,0,165,0,0,0,0,0,0,0,0,7,308,0,9,162,19,315,0,0,165,30,1,315,0,0,165,14,1,315,0,0,165,30,1,315,0,0,165,14,1,315,0,0,165,14,1,315,0,0,165,14,1,315,0,0,165,33,1,315,0,0,165,14,1,315,0,0,165,14,1,0,315,0,0,165,1,0,315,0,0,165,1,315,0,0,165,16,2,314,0,0,164,13,2,260,18,37,140,23,44